Change the Weather History Date:

Thursday, February 14, 2013

  Actual Average Record
Temperature  
Mean Temperature 27 °F 32 °F  
Max Temperature 38 °F 46 °F 71 °F (1979)
Min Temperature 16 °F 18 °F -10 °F (1903)
Degree Days  
Heating Degree Days 38 33  
Month to date heating degree days 435 472  
Since 1 July heating degree days 3735 4003  
Cooling Degree Days 0 0  
Month to date cooling degree days 0 0  
Year to date cooling degree days 0 0  
Moisture  
Dew Point 17 °F    
Average Humidity 64    
Maximum Humidity 81    
Minimum Humidity 47    
Precipitation  
Precipitation 0.01 in 0.01 in 0.41 in (1960)
Month to date precipitation 0.02 0.17  
Year to date precipitation 0.33 0.58  
Snow  
Snow T in - - ()
Month to date snowfall T  
Since 1 July snowfall 17  
Snow Depth 0.00 in    
Sea Level Pressure  
Sea Level Pressure 30.19 in    
Wind  
Wind Speed 11 mph (East)    
Max Wind Speed 32 mph    
Max Gust Speed 39 mph    
Visibility 7 miles    
Events Snow    
T = Trace of Precipitation, MM = Missing Value Source: NWS Daily Summary

Daily Weather History Graph

Daily Weather History Graph

Search for Another Location

Airport or City:

Trip Planner

Search our weather history database for the weather conditions in past years. The results will help you decide how hot, cold, wet, or windy it might be!

Date:

Astronomy

Feb. 14, 2013 Rise Set
Actual Time 6:52 AM MST 5:33 PM MST
Civil Twilight 6:24 AM MST 6:01 PM MST
Nautical Twilight 5:52 AM MST 6:33 PM MST
Astronomical Twilight 5:21 AM MST 7:04 PM MST
Moon 8:56 AM MST (2/14) 10:38 PM MST (2/14)
Length of Visible Light 11h 37m
Length of Day
10h 41m
Waxing Crescent, 22% of the Moon is Illuminated
Feb 14
Waxing Crescent
Feb 17
First Quarter
Feb 25
Full
Mar 4
Last Quarter
Mar 11
New

Hourly Weather History & Observations

Time (MST) Temp. Windchill Dew Point Humidity Pressure Visibility Wind Dir Wind Speed Gust Speed Precip Events Conditions
12:53 AM 27.0 °F 18.7 °F 10.9 °F 51% 30.02 in 10.0 mi ESE 8.1 mph - N/A   Scattered Clouds
1:53 AM 26.1 °F 16.2 °F 12.9 °F 58% 30.00 in 10.0 mi SE 10.4 mph - N/A   Scattered Clouds
2:53 AM 27.0 °F 16.1 °F 18.0 °F 69% 29.98 in 10.0 mi SE 12.7 mph - N/A   Scattered Clouds
3:53 AM 27.0 °F 15.6 °F 19.0 °F 72% 29.99 in 10.0 mi SE 13.8 mph - N/A   Scattered Clouds
4:53 AM 27.0 °F 16.1 °F 19.0 °F 72% 30.00 in 10.0 mi SSE 12.7 mph - N/A   Scattered Clouds
5:53 AM 28.0 °F 18.1 °F 19.0 °F 69% 30.02 in 10.0 mi SSE 11.5 mph - N/A   Scattered Clouds
6:53 AM 27.0 °F 18.0 °F 19.0 °F 72% 30.03 in 10.0 mi SSE 9.2 mph - N/A   Mostly Cloudy
7:53 AM 28.9 °F 21.9 °F 19.0 °F 67% 30.06 in 10.0 mi SSE 6.9 mph - N/A   Mostly Cloudy
8:53 AM 34.0 °F 28.0 °F 18.0 °F 52% 30.06 in 10.0 mi SSW 6.9 mph - N/A   Mostly Cloudy
9:53 AM 35.1 °F 26.9 °F 18.0 °F 50% 30.12 in 10.0 mi ENE 11.5 mph - N/A   Mostly Cloudy
10:24 AM 37.4 °F 25.2 °F 17.6 °F 45% 30.11 in 10.0 mi NNE 28.8 mph 34.5 mph N/A   Mostly Cloudy
10:49 AM 28.4 °F 12.3 °F 21.2 °F 74% 30.13 in 6.0 mi NNE 32.2 mph 39.1 mph 0.00 in Snow Light Snow
10:53 AM 27.0 °F 11.3 °F 19.0 °F 72% 30.20 in 4.0 mi NNE 27.6 mph 39.1 mph 0.00 in Snow Light Snow
11:25 AM 26.6 °F 10.8 °F 19.4 °F 74% 30.16 in 5.0 mi NNE 27.6 mph 33.4 mph 0.00 in Snow Light Snow
11:50 AM 26.6 °F 12.7 °F 19.4 °F 74% 30.18 in 2.5 mi NNE 20.7 mph 29.9 mph 0.00 in Snow Light Snow
11:53 AM 27.0 °F 11.9 °F 19.0 °F 72% 30.28 in 2.5 mi NNE 25.3 mph 31.1 mph 0.00 in Snow Light Snow
12:05 PM 26.6 °F 11.7 °F 17.6 °F 69% 30.18 in 1.2 mi NNE 24.2 mph 29.9 mph 0.00 in Snow Light Snow
12:39 PM 26.6 °F 13.8 °F 19.4 °F 74% 30.19 in 0.8 mi NNE 17.3 mph - 0.00 in Snow Light Snow
12:53 PM 25.0 °F 11.3 °F 19.0 °F 78% 30.29 in 0.5 mi North 18.4 mph - 0.00 in Snow Snow
1:16 PM 24.8 °F 11.9 °F 19.4 °F 80% 30.20 in 0.8 mi NNE 16.1 mph - 0.00 in Snow Light Snow
1:29 PM 26.6 °F 13.4 °F 17.6 °F 69% 30.20 in 1.2 mi NNE 18.4 mph - 0.00 in Snow Light Snow
1:53 PM 26.1 °F 14.5 °F 19.0 °F 75% 30.29 in 1.2 mi NNE 13.8 mph - 0.01 in Snow Light Snow
2:42 PM 26.6 °F 16.8 °F 19.4 °F 74% 30.22 in 0.8 mi NNE 10.4 mph - 0.00 in Snow Light Snow
2:53 PM 26.1 °F 13.6 °F 19.0 °F 75% 30.31 in 0.8 mi NNE 16.1 mph - 0.00 in Snow Light Snow
3:00 PM 26.6 °F 15.7 °F 19.4 °F 74% 30.23 in 1.8 mi NE 12.7 mph - 0.00 in Snow Light Snow
3:10 PM 26.6 °F 15.7 °F 19.4 °F 74% 30.24 in 1.8 mi NNE 12.7 mph - 0.00 in Snow Light Snow
3:20 PM 26.6 °F 16.2 °F 17.6 °F 69% 30.24 in 8.0 mi NNE 11.5 mph - 0.00 in Snow Light Snow
3:53 PM 25.0 °F 18.1 °F 17.1 °F 72% 30.33 in 10.0 mi NNE 5.8 mph - 0.00 in   Overcast
4:53 PM 25.0 °F - 17.1 °F 72% 30.33 in 10.0 mi Calm Calm - N/A   Mostly Cloudy
5:53 PM 23.0 °F 18.4 °F 14.0 °F 68% 30.32 in 10.0 mi SE 3.5 mph - N/A   Mostly Cloudy
6:53 PM 21.0 °F 14.6 °F 10.9 °F 65% 30.35 in 10.0 mi SE 4.6 mph - N/A   Mostly Cloudy
7:53 PM 19.0 °F 12.3 °F 9.0 °F 65% 30.36 in 10.0 mi SSE 4.6 mph - N/A   Mostly Cloudy
8:53 PM 18.0 °F 9.8 °F 9.0 °F 68% 30.34 in 10.0 mi SSE 5.8 mph - N/A   Mostly Cloudy
9:53 PM 19.9 °F 8.6 °F 10.9 °F 68% 30.31 in 10.0 mi South 10.4 mph - N/A   Overcast
10:53 PM 18.0 °F 7.7 °F 10.0 °F 71% 30.35 in 10.0 mi South 8.1 mph - N/A   Overcast
11:53 PM 18.0 °F 7.7 °F 10.0 °F 71% 30.35 in 10.0 mi SE 8.1 mph - N/A   Overcast